SWR87 LEPA-LEIB

Flight info

Callsign SWR87
Flight time 0h 28m
Altitude 11000
Route NELUX
Aircraft A359/H-SDE2E3GHIJ3J4J5LM1ORWXY/LB1D1

Departure

Time 2026-05-06 12:16
Airport Palma de Mallorca Airport (LEPA)

Arrival

Time 2026-05-06 12:44
Airport Ibiza Airport (LEIB)
Time Latitude Longitude Altitude Speed Heading
2026-05-06 12:02 39.55411 2.73558 45 ft 0 kts 122°
2026-05-06 12:08 39.55421 2.73536 44 ft 4 kts 115°
2026-05-06 12:09 39.55430 2.73504 43 ft 4 kts 103°
2026-05-06 12:09 39.55434 2.73469 45 ft 4 kts 89°
2026-05-06 12:09 39.55432 2.73435 45 ft 4 kts 75°
2026-05-06 12:09 39.55423 2.73402 42 ft 4 kts 63°
2026-05-06 12:10 39.55410 2.73372 39 ft 3 kts 58°
2026-05-06 12:10 39.55408 2.73369 39 ft 0 kts 59°
2026-05-06 12:11 39.55456 2.73470 45 ft 21 kts 58°
2026-05-06 12:12 39.55530 2.73561 44 ft 7 kts 352°
2026-05-06 12:12 39.55585 2.73527 44 ft 16 kts 334°
2026-05-06 12:12 39.55653 2.73527 44 ft 8 kts 38°
2026-05-06 12:12 39.55740 2.73671 43 ft 28 kts 59°
2026-05-06 12:13 39.55846 2.73899 44 ft 31 kts 59°
2026-05-06 12:13 39.55963 2.74153 44 ft 34 kts 59°
2026-05-06 12:13 39.56094 2.74422 44 ft 32 kts 43°
2026-05-06 12:13 39.56254 2.74363 44 ft 21 kts 292°
2026-05-06 12:14 39.56229 2.74265 44 ft 6 kts 237°
2026-05-06 12:15 39.56216 2.74238 44 ft 9 kts 238°
2026-05-06 12:16 39.56062 2.73920 45 ft 83 kts 239°
2026-05-06 12:16 39.55619 2.72992 48 ft 155 kts 237°
2026-05-06 12:16 39.55051 2.71796 882 ft 158 kts 238°
2026-05-06 12:16 39.54446 2.70519 1568 ft 180 kts 236°
2026-05-06 12:17 39.53733 2.68982 1986 ft 213 kts 237°
2026-05-06 12:17 39.52961 2.67315 2821 ft 222 kts 238°
2026-05-06 12:17 39.51958 2.65660 3409 ft 248 kts 226°
2026-05-06 12:17 39.50693 2.64026 4166 ft 262 kts 223°
2026-05-06 12:18 39.49362 2.62397 5212 ft 264 kts 223°
2026-05-06 12:18 39.48015 2.60770 6345 ft 265 kts 223°
2026-05-06 12:18 39.46658 2.59138 7441 ft 267 kts 223°
2026-05-06 12:18 39.45287 2.57493 8562 ft 270 kts 224°
2026-05-06 12:19 39.43903 2.55834 9709 ft 273 kts 224°
2026-05-06 12:19 39.42491 2.54142 10444 ft 285 kts 224°
2026-05-06 12:19 39.40959 2.52304 10827 ft 316 kts 224°
2026-05-06 12:19 39.39294 2.50311 10912 ft 347 kts 224°
2026-05-06 12:20 39.37463 2.48123 10919 ft 366 kts 224°
2026-05-06 12:20 39.35573 2.45871 10931 ft 371 kts 224°
2026-05-06 12:20 39.33672 2.43608 10931 ft 372 kts 224°
2026-05-06 12:20 39.31769 2.41344 10932 ft 372 kts 224°
2026-05-06 12:21 39.29865 2.39078 10939 ft 373 kts 224°
2026-05-06 12:21 39.27955 2.36807 10937 ft 373 kts 224°
2026-05-06 12:21 39.26046 2.34537 10939 ft 373 kts 224°
2026-05-06 12:21 39.24135 2.32268 10939 ft 373 kts 224°
2026-05-06 12:22 39.22223 2.29998 10940 ft 373 kts 224°
2026-05-06 12:22 39.20310 2.27730 10944 ft 373 kts 224°
2026-05-06 12:22 39.18399 2.25465 10946 ft 373 kts 224°
2026-05-06 12:22 39.16487 2.23201 10947 ft 373 kts 224°
2026-05-06 12:23 39.14570 2.20932 10948 ft 373 kts 224°
2026-05-06 12:23 39.12654 2.18667 10948 ft 373 kts 224°
2026-05-06 12:23 39.10762 2.16431 10945 ft 373 kts 224°
2026-05-06 12:23 39.08845 2.14168 10946 ft 374 kts 224°
2026-05-06 12:24 39.06922 2.11900 10949 ft 374 kts 224°
2026-05-06 12:24 39.05003 2.09637 10948 ft 374 kts 224°
2026-05-06 12:24 39.03081 2.07374 10951 ft 374 kts 224°
2026-05-06 12:24 39.01153 2.05105 10949 ft 374 kts 224°
2026-05-06 12:25 38.99254 2.02872 10949 ft 373 kts 224°
2026-05-06 12:25 38.97389 2.00683 10954 ft 351 kts 224°
2026-05-06 12:25 38.95621 1.98608 10958 ft 340 kts 224°
2026-05-06 12:25 38.93874 1.96556 10946 ft 340 kts 224°
2026-05-06 12:26 38.92145 1.94484 10940 ft 340 kts 226°
2026-05-06 12:26 38.90740 1.92059 10945 ft 341 kts 243°
2026-05-06 12:26 38.89906 1.89141 10943 ft 355 kts 254°
2026-05-06 12:26 38.89271 1.86053 10936 ft 359 kts 256°
2026-05-06 12:27 38.88663 1.82979 10935 ft 360 kts 256°
2026-05-06 12:27 38.88034 1.79872 10939 ft 360 kts 255°
2026-05-06 12:27 38.87369 1.76732 10934 ft 360 kts 255°
2026-05-06 12:27 38.86716 1.73668 10937 ft 358 kts 255°
2026-05-06 12:28 38.86075 1.70649 10942 ft 344 kts 255°
2026-05-06 12:28 38.85452 1.67711 10938 ft 340 kts 255°
2026-05-06 12:28 38.84833 1.64792 10764 ft 337 kts 255°
2026-05-06 12:28 38.84217 1.61884 10523 ft 337 kts 255°
2026-05-06 12:29 38.83600 1.58980 10288 ft 337 kts 255°
2026-05-06 12:29 38.82986 1.56086 10049 ft 336 kts 255°
2026-05-06 12:29 38.82370 1.53192 9943 ft 335 kts 255°
2026-05-06 12:29 38.81760 1.50324 9886 ft 327 kts 255°
2026-05-06 12:30 38.81177 1.47587 9662 ft 311 kts 255°
2026-05-06 12:30 38.80620 1.44980 9469 ft 296 kts 255°
2026-05-06 12:30 38.79956 1.42540 9254 ft 284 kts 246°
2026-05-06 12:30 38.79104 1.40346 9010 ft 275 kts 243°
2026-05-06 12:31 38.78209 1.38190 8753 ft 274 kts 243°
2026-05-06 12:31 38.77311 1.36033 8507 ft 274 kts 243°
2026-05-06 12:31 38.76411 1.33866 8247 ft 276 kts 242°
2026-05-06 12:31 38.75511 1.31699 8001 ft 275 kts 242°
2026-05-06 12:32 38.74614 1.29535 7743 ft 274 kts 242°
2026-05-06 12:32 38.73721 1.27381 7492 ft 273 kts 242°
2026-05-06 12:32 38.72831 1.25233 7249 ft 274 kts 242°
2026-05-06 12:32 38.71943 1.23108 7000 ft 274 kts 242°
2026-05-06 12:33 38.71044 1.20958 6768 ft 274 kts 242°
2026-05-06 12:33 38.70144 1.18806 6526 ft 274 kts 241°
2026-05-06 12:33 38.69246 1.16656 6288 ft 274 kts 241°
2026-05-06 12:33 38.68345 1.14504 6026 ft 273 kts 241°
2026-05-06 12:34 38.67449 1.12360 5773 ft 273 kts 241°
2026-05-06 12:34 38.66552 1.10210 5522 ft 273 kts 241°
2026-05-06 12:34 38.65653 1.08066 5272 ft 273 kts 241°
2026-05-06 12:34 38.64787 1.05908 5054 ft 273 kts 246°
2026-05-06 12:35 38.64303 1.03641 5007 ft 260 kts 259°
2026-05-06 12:35 38.64018 1.01439 5008 ft 242 kts 260°
2026-05-06 12:35 38.63855 0.99348 5005 ft 233 kts 271°
2026-05-06 12:35 38.64297 0.97380 5004 ft 233 kts 302°
2026-05-06 12:36 38.65456 0.95978 5015 ft 230 kts 329°
2026-05-06 12:36 38.66892 0.95064 4994 ft 231 kts 343°
2026-05-06 12:36 38.68469 0.94906 4955 ft 228 kts 12°
2026-05-06 12:36 38.69862 0.95787 4833 ft 224 kts 44°
2026-05-06 12:37 38.70778 0.97347 4710 ft 222 kts 61°
2026-05-06 12:37 38.71522 0.99075 4595 ft 221 kts 63°
2026-05-06 12:37 38.72209 1.00832 4462 ft 220 kts 65°
2026-05-06 12:37 38.72896 1.02547 4346 ft 217 kts 63°
2026-05-06 12:38 38.73602 1.04268 4222 ft 218 kts 63°
2026-05-06 12:38 38.74307 1.05981 4007 ft 216 kts 63°
2026-05-06 12:38 38.75009 1.07679 3807 ft 215 kts 63°
2026-05-06 12:38 38.75702 1.09351 3577 ft 214 kts 63°
2026-05-06 12:39 38.76395 1.11021 3430 ft 208 kts 63°
2026-05-06 12:39 38.77060 1.12618 3331 ft 198 kts 63°
2026-05-06 12:39 38.77703 1.14165 3106 ft 195 kts 63°
2026-05-06 12:39 38.78330 1.15673 3000 ft 189 kts 62°
2026-05-06 12:40 38.78945 1.17158 3014 ft 187 kts 62°
2026-05-06 12:40 38.79557 1.18635 2998 ft 188 kts 62°
2026-05-06 12:40 38.80166 1.20110 2952 ft 183 kts 62°
2026-05-06 12:40 38.80752 1.21527 2651 ft 178 kts 62°
2026-05-06 12:41 38.81321 1.22902 2276 ft 173 kts 61°
2026-05-06 12:41 38.81870 1.24227 2053 ft 166 kts 62°
2026-05-06 12:41 38.82399 1.25506 1841 ft 159 kts 61°
2026-05-06 12:41 38.82908 1.26736 1623 ft 151 kts 61°
2026-05-06 12:42 38.83377 1.27870 1423 ft 138 kts 61°
2026-05-06 12:42 38.83808 1.28911 1251 ft 127 kts 62°
2026-05-06 12:42 38.84076 1.29560 1138 ft 121 kts 60°
2026-05-06 12:42 38.84465 1.30499 977 ft 117 kts 61°
2026-05-06 12:43 38.84850 1.31429 814 ft 118 kts 63°
2026-05-06 12:43 38.85361 1.32668 617 ft 119 kts 65°
2026-05-06 12:43 38.85754 1.33619 453 ft 121 kts 64°
2026-05-06 12:43 38.86145 1.34562 299 ft 117 kts 64°
2026-05-06 12:44 38.86401 1.35183 183 ft 116 kts 64°
2026-05-06 12:44 38.86790 1.36095 49 ft 118 kts 65°
2026-05-06 12:44 38.87127 1.36939 35 ft 91 kts 61°
2026-05-06 12:44 38.87318 1.37372 38 ft 33 kts 46°
2026-05-06 12:45 38.87483 1.37519 45 ft 23 kts 32°
2026-05-06 12:45 38.87557 1.37562 45 ft 3 kts 332°
2026-05-06 12:45 38.87528 1.37436 44 ft 13 kts 240°
2026-05-06 12:46 38.87474 1.37312 48 ft 19 kts 240°
2026-05-06 12:46 38.87410 1.37161 44 ft 20 kts 241°
2026-05-06 12:46 38.87337 1.36986 45 ft 25 kts 243°
2026-05-06 12:46 38.87301 1.36895 44 ft 9 kts 248°
2026-05-06 12:47 38.87324 1.36837 44 ft 8 kts 328°
2026-05-06 12:47 38.87382 1.36800 46 ft 10 kts 334°
2026-05-06 12:47 38.87438 1.36783 46 ft 8 kts
2026-05-06 12:47 38.87492 1.36797 50 ft 7 kts 12°
2026-05-06 12:48 38.87510 1.36803 53 ft 0 kts 16°